Home > Weather > Passo Fundo > Past weeks

Flag for Brazil Past Weather in Passo Fundo, Rio Grande do Sul, Brazil — Yesterday and Last 2 Weeks

Now
66 °F

Light rain. Fog.


Feels Like: 66 °F
Forecast: 56 / 61 °F
Wind: 10 mph from Southeast

Location: Porto Alegre Aero-Porto

Current Time: May 29, 2016 at 2:32:56 PM

Latest Report: May 29, 2016 at 2:00 PM


Visibility: 2 mi

Pressure: N/A

Humidity: 94%

Dew Point: 64 °F

Location of Passo FundoLocation

Past Weather in Passo Fundo — Graph

°F

Passo Fundo Temperature Yesterday

Maximum temperature yesterday: 72 °F (at 2:00 PM)
Minimum temperature yesterday: 54 °F (at 12:00 AM)
Average temperature yesterday: 62 °F

High & Low Weather Summary for the Past Weeks

 TemperatureHumidityPressure
High75 °F (May 14, 2:00 PM)100% (May 15, 6:00 AM)30.48 "Hg (May 15, 6:00 AM)
Low45 °F (May 18, 4:00 AM)30% (May 15, 8:00 PM)29.59 "Hg (May 15, 5:00 PM)
Average58 °F85%30.13 "Hg
* Reported May 14 1:00 PM — May 29 1:00 PM, Passo Fundo, Weather by CustomWeather, © 2016

Note: Actual official high and low records may vary slightly from our data, if they occured in-between our weather recording intervals... More about our weather records

Advertising

Passo Fundo Weather History for the Previous 24 Hours

Scroll right to see more
 ConditionsComfort  
Time TempWeatherWind HumidityBarometerVisibility
1:00 PM
Sun, May 29
66 °FLight rain. Fog.7 mph100%N/A2 mi
12:00 PM66 °FLight rain. Fog.8 mph94%N/A2 mi
11:00 AM66 °FLight rain. Fog.8 mph94%N/A2 mi
10:00 AM64 °FLight rain. Partly sunny.8 mph100%30.04 "Hg4 mi
9:00 AM64 °FMore clouds than sun.9 mph94%30.04 "Hg6 mi
8:00 AM64 °FMore clouds than sun.12 mph94%30.04 "Hg6 mi
7:00 AM64 °FLight rain. Partly sunny.9 mph94%30.04 "HgN/A
6:00 AM63 °FClear.8 mph94%30.04 "Hg10 mi
5:00 AM63 °FClear.8 mph94%30.04 "Hg10 mi
4:00 AM63 °FClear.9 mph94%30.07 "Hg10 mi
3:00 AM63 °FClear.12 mph94%30.07 "Hg10 mi
2:00 AM59 °FClear.6 mph100%30.09 "Hg10 mi
1:00 AM63 °FClear.6 mph94%30.12 "Hg10 mi
12:00 AM63 °FClear.10 mph94%30.12 "Hg10 mi
11:00 PM
Sat, May 28
63 °FClear.9 mph94%30.15 "Hg10 mi
10:00 PM64 °FClear.10 mph88%30.15 "Hg10 mi
9:00 PM64 °FClear.12 mph88%30.15 "Hg10 mi
8:00 PM66 °FClear.15 mph88%30.15 "Hg10 mi
7:00 PM66 °FClear.17 mph88%30.15 "Hg10 mi
6:00 PM68 °FClear.17 mph78%30.15 "Hg10 mi
5:00 PM70 °FPassing clouds.18 mph73%30.15 "HgN/A
4:00 PM72 °FPassing clouds.16 mph69%30.15 "HgN/A
3:00 PM72 °FPassing clouds.15 mph73%30.15 "HgN/A
2:00 PM72 °FPassing clouds.14 mph73%30.18 "HgN/A
Weather by CustomWeather, © 2016

See weather overviewHow to use our weather pages